Temp
-9 -9 -9 -9 -9 -10 -10 -10 -10 -10 -10 -9 -10 -9 -10 -10 -10 -10 -9 -9 -10 -9 -10 -10 -9 -7 -10 -10 -10 -10 -10 -10 -10 -10 -9 -9 -9 -10 -10 -10 -10 -10 -10 -10
-9 -9 -10 -10 -10 -10 -10 -9 -10 -10 -10 -10 -10 -10 -10 -10 -10 -10 -9 -10 -10 -10 -10 -10 -9 -10 -8 -10 -10 -10 -11 -11 -10 -10 -10 -10 -10 -10 -10 -10 -10 -10 -10 -10
-10 -9 -10 -10 -11 -10 -10 -10 -9 -9 -10 -10 -10 -10 -10 -10 -10 -10 -10 -10 -10 -10 -10 -10 -10 -10 -10 -10 -9 -10 -11 -11 -11 -11 -10 -10 -10 -11 -11 -10 -10 -10 -10 -10
-9 -9 -9 -9 -10 -11 -10 -10 -10 -10 -10 -9 -9 -10 -10 -10 -10 -10 -10 -10 -10 -10 -9 -10 -10 -10 -10 -10 -9 -10 -10 -11 -11 -10 -11 -11 -11 -11 -10 -10 -10 -10 -10 -10
-8 -8 -9 -10 -10 -11 -11 -10 -10 -9 -9 -9 -9 -9 -10 -10 -10 -11 -10 -10 -9 -9 -10 -10 -10 -10 -10 -10 -10 -10 -11 -12 -11 -11 -11 -11 -11 -11 -11 -11 -10 -10 -10 -11
-9 -10 -10 -10 -11 -11 -10 -10 -9 -9 -9 -9 -9 -9 -9 -10 -10 -10 -9 -10 -10 -10 -10 -10 -9 -9 -10 -10 -11 -10 -11 -11 -10 -10 -10 -10 -11 -10 -10 -11 -11 -11 -11 -11
-10 -11 -10 -10 -10 -10 -10 -10 -10 -9 -9 -9 -9 -9 -9 -9 -10 -10 -10 -10 -10 -9 -9 -9 -9 -10 -9 -10 -11 -10 -11 -11 -11 -10 -10 -10 -10 -10 -9 -10 -11 -11 -11 -11
-10 -10 -9 -10 -10 -9 -9 -10 -10 -9 -9 -8 -8 -8 -10 -10 -10 -10 -10 -10 -9 -9 -9 -10 -9 -9 -10 -10 -11 -11 -11 -11 -10 -10 -10 -10 -10 -10 -10 -11 -11 -11 -10 -10
-9 -9 -10 -10 -10 -10 -9 -9 -10 -9 -9 -8 -8 -9 -9 -10 -10 -9 -10 -10 -9 -9 -9 -9 -10 -8 -8 -10 -10 -11 -11 -10 -10 -10 -10 -10 -9 -9 -9 -9 -10 -10 -11 -11
-10 -9 -9 -10 -10 -10 -10 -10 -10 -10 -9 -9 -8 -8 -9 -9 -10 -10 -10 -9 -9 -9 -9 -9 -8 -7 -8 -10 -10 -11 -11 -11 -11 -10 -10 -9 -9 -10 -10 -10 -11 -11 -11 -11
-10 -10 -9 -9 -9 -9 -9 -10 -10 -10 -9 -9 -9 -9 -9 -9 -10 -10 -9 -9 -9 -9 -9 -8 -8 -9 -9 -10 -10 -12 -10 -11 -11 -10 -11 -11 -10 -11 -11 -11 -12 -11 -12 -12
-10 -10 -9 -9 -9 -9 -9 -9 -9 -9 -9 -9 -9 -9 -9 -9 -9 -9 -9 -9 -8 -8 -9 -9 -9 -8 -10 -10 -10 -11 -10 -10 -10 -11 -11 -11 -11 -11 -11 -11 -11 -12 -12 -12
-10 -10 -10 -9 -9 -10 -10 -10 -10 -10 -9 -9 -9 -10 -9 -10 -9 -9 -10 -9 -9 -8 -9 -10 -9 -10 -10 -9 -10 -10 -10 -11 -11 -11 -11 -10 -11 -11 -11 -11 -12 -11 -12 -12
-11 -10 -10 -9 -9 -9 -9 -10 -10 -10 -10 -10 -9 -10 -10 -10 -9 -9 -10 -9 -9 -9 -10 -10 -10 -10 -11 -10 -11 -11 -11 -11 -11 -11 -11 -11 -11 -11 -11 -12 -12 -12 -12 -13
-10 -9 -10 -10 -10 -10 -9 -9 -9 -9 -10 -10 -10 -9 -10 -10 -10 -10 -10 -9 -9 -10 -10 -10 -10 -11 -11 -11 -11 -12 -13 -12 -11 -11 -11 -11 -12 -12 -12 -12 -12 -13 -13 -13
-11 -11 -10 -10 -10 -10 -10 -10 -9 -9 -9 -10 -10 -10 -10 -10 -10 -10 -10 -10 -10 -10 -10 -10 -10 -12 -11 -11 -12 -12 -12 -11 -11 -11 -12 -12 -12 -12 -12 -13 -13 -13 -13 -13
-12 -11 -10 -10 -10 -10 -10 -10 -9 -10 -10 -10 -10 -10 -10 -10 -10 -10 -10 -10 -10 -10 -10 -10 -10 -11 -11 -11 -11 -11 -11 -12 -11 -12 -12 -12 -12 -13 -13 -13 -13 -13 -13 -13
-11 -11 -10 -10 -11 -10 -10 -10 -10 -11 -11 -11 -11 -10 -10 -10 -10 -10 -10 -11 -10 -10 -10 -11 -11 -11 -11 -12 -12 -13 -12 -12 -12 -12 -13 -13 -13 -13 -13 -13 -13 -13 -13 -13
-12 -11 -11 -11 -11 -10 -10 -10 -10 -10 -11 -11 -11 -11 -11 -10 -10 -11 -11 -11 -11 -11 -11 -11 -11 -11 -11 -12 -12 -12 -12 -12 -13 -13 -13 -13 -14 -14 -14 -14 -14 -14 -14 -14
-11 -12 -12 -11 -11 -10 -11 -10 -11 -11 -11 -12 -12 -11 -11 -11 -11 -11 -11 -11 -11 -11 -12 -12 -12 -12 -12 -12 -12 -12 -12 -12 -12 -13 -13 -14 -14 -14 -14 -14 -15 -15 -14 -14
-11 -11 -11 -11 -11 -11 -11 -12 -12 -11 -11 -11 -11 -11 -10 -10 -11 -11 -11 -12 -12 -12 -12 -12 -12 -13 -13 -12 -12 -12 -12 -13 -13 -14 -14 -14 -14 -15 -15 -15 -15 -15 -15 -15
-12 -12 -11 -11 -11 -11 -12 -12 -12 -12 -11 -11 -11 -11 -10 -10 -11 -11 -11 -11 -12 -11 -12 -12 -12 -13 -13 -13 -13 -14 -14 -14 -14 -14 -14 -14 -14 -14 -14 -14 -15 -15 -15 -15
-12 -11 -10 -11 -11 -12 -12 -12 -12 -12 -11 -10 -10 -10 -11 -12 -11 -11 -11 -11 -11 -12 -12 -12 -12 -13 -13 -14 -14 -14 -15 -14 -14 -14 -14 -14 -14 -15 -15 -15 -15 -15 -15 -15
-12 -11 -11 -11 -12 -12 -11 -11 -12 -11 -11 -10 -10 -10 -11 -11 -12 -11 -10 -11 -12 -12 -13 -13 -13 -13 -13 -14 -14 -14 -15 -14 -15 -15 -14 -15 -15 -15 -15 -15 -15 -14 -15 -15
-12 -11 -12 -12 -12 -12 -12 -11 -12 -12 -11 -11 -11 -11 -11 -12 -12 -11 -11 -12 -13 -13 -13 -13 -13 -14 -14 -14 -14 -14 -15 -15 -15 -15 -14 -14 -14 -14 -15 -15 -15 -14 -14 -15
-12 -12 -12 -11 -12 -12 -12 -12 -12 -12 -12 -12 -11 -12 -12 -12 -12 -13 -13 -13 -13 -13 -13 -13 -13 -13 -14 -14 -14 -15 -14 -15 -15 -15 -14 -14 -15 -15 -14 -15 -15 -15 -15 -15
Height
5895 5898 5900 5901 5901 5901 5902 5901 5901 5900 5899 5895 5895 5895 5894 5894 5888 5884 5882 5879 5876 5868 5865 5864 5860 5833 5846 5856 5860 5860 5857 5854 5852 5851 5850 5846 5847 5845 5844 5843 5840 5837 5835 5831
5896 5898 5901 5901 5901 5901 5901 5899 5897 5896 5895 5893 5891 5889 5887 5889 5886 5882 5878 5875 5870 5868 5863 5859 5856 5853 5835 5850 5853 5855 5852 5849 5848 5845 5844 5841 5841 5841 5840 5838 5837 5834 5832 5829
5895 5896 5895 5895 5897 5897 5897 5895 5894 5892 5891 5890 5888 5885 5885 5882 5880 5876 5872 5871 5865 5864 5861 5859 5857 5851 5849 5851 5850 5847 5846 5844 5842 5842 5839 5840 5838 5836 5835 5835 5832 5829 5827 5823
5890 5890 5891 5893 5892 5894 5892 5893 5890 5887 5888 5886 5884 5882 5880 5876 5873 5871 5871 5870 5865 5861 5856 5852 5851 5848 5844 5846 5845 5844 5843 5841 5837 5836 5835 5835 5832 5833 5830 5828 5828 5826 5823 5816
5890 5889 5889 5890 5891 5891 5889 5887 5887 5886 5885 5883 5883 5879 5875 5871 5869 5865 5865 5864 5859 5853 5851 5845 5843 5842 5838 5839 5840 5839 5839 5835 5830 5831 5833 5831 5829 5829 5828 5825 5822 5821 5817 5811
5889 5888 5887 5886 5886 5886 5886 5885 5884 5883 5880 5879 5876 5875 5872 5869 5865 5861 5858 5857 5853 5846 5842 5840 5830 5830 5829 5834 5834 5831 5831 5828 5826 5828 5829 5825 5822 5822 5821 5819 5817 5815 5812 5808
5886 5885 5883 5884 5883 5884 5882 5880 5878 5877 5875 5875 5873 5869 5865 5859 5856 5852 5850 5848 5846 5841 5835 5828 5828 5823 5817 5822 5824 5823 5824 5823 5825 5825 5824 5820 5815 5815 5815 5813 5811 5810 5808 5804
5882 5883 5882 5880 5879 5879 5877 5876 5875 5870 5869 5867 5868 5864 5860 5854 5847 5843 5837 5836 5835 5831 5828 5824 5824 5818 5810 5802 5815 5816 5819 5822 5822 5822 5819 5812 5811 5812 5810 5807 5804 5801 5800 5796
5880 5881 5878 5877 5877 5875 5874 5872 5870 5866 5862 5859 5859 5857 5854 5850 5842 5836 5831 5824 5821 5820 5820 5818 5814 5807 5784 5802 5805 5812 5816 5816 5817 5815 5811 5806 5806 5805 5803 5800 5794 5792 5791 5788
5874 5875 5876 5876 5873 5871 5867 5867 5863 5860 5856 5853 5852 5851 5847 5842 5839 5834 5828 5822 5819 5815 5813 5809 5804 5793 5792 5800 5806 5808 5810 5813 5813 5809 5803 5802 5800 5799 5797 5795 5789 5787 5786 5783
5868 5870 5874 5874 5872 5865 5867 5861 5857 5854 5853 5847 5844 5845 5841 5837 5831 5828 5825 5820 5812 5807 5807 5806 5799 5796 5797 5799 5802 5805 5807 5807 5807 5802 5799 5798 5797 5796 5794 5791 5787 5784 5782 5778
5863 5865 5867 5869 5867 5860 5858 5857 5854 5850 5848 5844 5839 5836 5832 5829 5822 5819 5817 5815 5810 5803 5801 5800 5797 5792 5793 5794 5796 5798 5802 5801 5799 5797 5797 5795 5794 5793 5790 5787 5783 5781 5777 5773
5859 5859 5861 5860 5860 5854 5851 5850 5846 5844 5842 5840 5834 5829 5827 5823 5816 5813 5812 5808 5804 5798 5795 5794 5795 5792 5789 5789 5790 5792 5793 5792 5792 5792 5792 5791 5790 5789 5785 5780 5777 5775 5773 5770
5852 5853 5851 5849 5846 5848 5848 5845 5840 5838 5836 5833 5830 5825 5821 5816 5811 5806 5803 5802 5799 5793 5790 5788 5787 5786 5786 5786 5785 5785 5787 5787 5786 5788 5787 5786 5786 5782 5777 5773 5773 5771 5769 5764
5843 5844 5843 5843 5841 5838 5837 5839 5837 5832 5831 5828 5823 5820 5815 5811 5808 5803 5798 5795 5793 5790 5786 5784 5782 5781 5780 5779 5781 5780 5781 5781 5781 5782 5782 5782 5780 5776 5771 5769 5767 5767 5762 5758
5834 5835 5837 5838 5838 5832 5829 5832 5828 5826 5823 5819 5816 5815 5811 5807 5803 5801 5797 5793 5790 5787 5784 5783 5780 5778 5777 5777 5778 5778 5780 5779 5780 5780 5779 5777 5773 5769 5768 5764 5761 5759 5754 5752
5828 5829 5829 5826 5829 5825 5825 5824 5820 5817 5815 5812 5809 5807 5804 5801 5799 5796 5794 5792 5788 5785 5783 5783 5781 5780 5778 5777 5776 5775 5776 5776 5775 5774 5773 5770 5764 5764 5762 5760 5756 5752 5750 5746
5822 5822 5821 5820 5821 5817 5818 5816 5812 5809 5809 5807 5802 5801 5798 5795 5793 5791 5789 5788 5785 5781 5779 5778 5777 5775 5773 5773 5771 5771 5770 5770 5769 5768 5765 5762 5761 5759 5758 5753 5748 5744 5741 5737
5813 5815 5814 5812 5812 5810 5808 5805 5803 5802 5803 5800 5797 5796 5793 5790 5787 5786 5784 5781 5780 5777 5774 5772 5770 5770 5768 5766 5765 5765 5764 5763 5762 5761 5759 5757 5754 5752 5749 5743 5738 5734 5731 5726
5806 5808 5805 5804 5802 5800 5800 5799 5798 5795 5796 5793 5791 5788 5788 5785 5782 5780 5777 5775 5774 5774 5772 5769 5767 5766 5764 5762 5761 5761 5759 5758 5756 5753 5750 5748 5745 5740 5735 5730 5726 5722 5717 5712
5794 5795 5798 5796 5794 5792 5793 5791 5790 5786 5791 5781 5784 5780 5778 5776 5778 5773 5769 5768 5766 5766 5766 5764 5762 5759 5758 5756 5755 5752 5750 5748 5745 5742 5739 5736 5732 5728 5722 5717 5713 5709 5704 5699
5786 5786 5789 5790 5789 5786 5788 5782 5779 5781 5778 5779 5772 5769 5768 5766 5768 5767 5764 5761 5759 5759 5758 5756 5753 5752 5751 5748 5746 5743 5741 5737 5734 5730 5726 5722 5717 5712 5707 5703 5698 5693 5689 5685
5777 5777 5780 5782 5781 5780 5780 5777 5773 5771 5768 5765 5762 5757 5753 5752 5755 5757 5756 5754 5751 5748 5747 5744 5743 5740 5739 5737 5734 5731 5728 5724 5720 5716 5712 5708 5702 5697 5692 5688 5683 5678 5673 5668
5770 5773 5770 5772 5774 5772 5772 5769 5768 5766 5762 5757 5753 5751 5748 5748 5748 5747 5746 5745 5743 5742 5741 5738 5736 5734 5731 5728 5724 5719 5715 5712 5708 5703 5699 5694 5689 5684 5678 5672 5666 5662 5655 5649
5762 5765 5764 5764 5767 5766 5763 5762 5759 5756 5752 5750 5747 5745 5743 5742 5740 5741 5738 5736 5734 5733 5730 5729 5726 5725 5721 5717 5712 5707 5703 5699 5694 5689 5684 5679 5673 5668 5662 5654 5648 5642 5634 5628
5753 5754 5756 5758 5758 5758 5756 5754 5752 5749 5747 5745 5740 5738 5736 5734 5731 5731 5729 5727 5726 5724 5721 5718 5715 5712 5709 5704 5700 5695 5690 5686 5681 5675 5668 5661 5655 5649 5642 5635 5628 5621 5614 5608
Wind_Speed
11 7 7 6 8 3 2 7 5 8 8 15 11 9 10 19 28 28 25 34 39 41 49 54 45 8 18 15 21 24 23 24 21 20 18 15 15 17 21 22 21 22 22 23
7 6 7 4 2 4 2 11 4 6 9 18 19 17 17 21 27 34 31 32 31 33 49 49 53 39 11 17 23 20 20 22 21 19 17 14 16 18 19 20 21 21 22 22
11 9 10 10 6 6 2 4 6 10 20 26 27 25 24 22 26 30 35 40 39 43 47 50 37 32 19 26 25 19 21 22 20 17 15 15 17 17 19 22 22 22 22 25
20 9 3 3 3 10 15 13 18 24 21 22 15 18 21 27 31 28 26 30 37 30 36 37 25 34 25 27 24 19 22 22 19 17 16 19 17 17 21 21 24 23 22 27
13 7 3 3 7 9 16 19 21 21 21 20 11 22 23 27 31 34 35 34 29 33 26 22 43 33 23 27 24 23 23 19 15 17 21 19 14 19 21 22 22 22 24 28
7 4 5 1 9 16 19 24 21 23 27 27 24 26 28 31 34 34 35 39 39 39 40 43 31 25 28 25 24 21 20 18 16 15 16 15 17 19 22 24 23 24 25 26
15 15 17 12 15 16 20 22 28 30 32 27 24 26 25 29 36 38 38 36 35 38 41 29 37 34 30 33 19 15 18 14 16 17 15 16 17 21 24 25 25 28 30 28
20 15 17 14 19 21 20 19 22 31 33 32 27 26 28 38 36 35 33 37 35 38 37 23 26 39 30 22 9 11 12 15 17 16 15 16 18 22 25 25 26 26 28 29
18 18 21 20 23 26 24 24 29 31 32 34 32 31 31 28 37 34 33 36 40 34 35 25 22 42 23 14 5 12 14 16 19 15 17 18 19 20 23 23 25 27 30 29
25 19 18 22 24 29 35 33 33 32 35 37 35 32 32 35 32 30 29 30 28 28 29 30 26 14 43 19 11 13 14 17 15 15 12 20 22 22 23 25 24 26 28 25
33 29 16 17 20 27 21 24 29 33 34 37 38 34 36 34 33 29 28 26 29 28 23 18 17 21 12 13 15 13 14 14 16 10 15 20 21 23 22 21 20 19 21 22
37 32 27 19 20 31 27 25 28 30 34 36 37 37 36 33 35 35 31 27 26 29 26 17 11 13 12 17 22 13 17 15 14 8 18 21 18 16 15 16 17 17 19 20
16 12 24 31 25 26 31 29 31 31 33 33 36 37 35 33 36 34 26 25 26 30 20 15 8 14 23 17 22 13 17 14 7 16 18 11 13 13 16 19 19 21 21 20
25 26 31 33 31 23 26 30 31 33 33 33 33 33 32 33 33 30 30 25 23 16 15 15 11 12 5 18 18 19 11 9 8 12 10 9 13 17 20 19 20 19 20 19
33 29 27 21 22 29 32 31 32 35 31 31 32 30 30 30 26 26 26 24 19 14 17 15 10 6 6 9 8 5 8 9 9 9 10 13 17 20 19 18 17 19 19 23
34 36 34 33 36 34 39 36 36 33 29 31 31 28 28 26 25 21 20 18 17 14 11 9 4 8 5 8 9 13 11 10 14 12 12 15 19 21 20 17 15 19 22 26
37 38 35 32 27 40 37 32 34 31 26 28 29 27 28 24 23 18 16 16 14 12 12 11 9 7 8 10 9 9 12 13 15 14 17 19 21 20 20 22 26 27 28 26
41 40 39 31 35 40 34 28 28 27 26 26 30 27 26 24 24 19 19 19 18 16 14 15 16 16 15 11 16 20 16 18 17 18 20 22 21 21 25 26 26 26 28 31
43 47 37 38 33 31 27 28 27 27 22 25 29 26 26 25 25 21 22 21 20 18 19 18 19 18 16 14 15 18 20 23 23 23 27 26 28 32 34 34 34 36 38 39
47 44 29 27 33 35 34 32 28 27 28 22 25 25 28 25 24 21 22 22 21 20 20 23 22 19 18 20 22 25 27 28 29 30 31 34 36 40 45 44 43 42 43 41
29 27 29 27 35 34 30 27 24 17 39 20 26 33 31 28 21 23 23 21 22 21 25 24 21 23 24 26 28 29 29 30 32 34 39 42 44 46 47 47 44 43 43 48
30 29 29 32 35 31 30 27 27 27 27 27 25 24 30 30 22 25 27 28 28 26 25 26 23 22 22 27 30 32 33 35 40 42 44 45 45 46 46 45 45 50 55 55
35 36 36 38 26 31 26 22 26 29 32 29 32 34 30 31 21 27 29 30 30 30 29 25 29 28 32 34 34 39 42 44 45 47 48 49 50 50 49 50 56 62 63 63
32 37 24 30 22 24 30 28 27 30 31 31 33 29 24 34 25 29 30 30 28 25 24 31 31 31 34 34 37 39 42 45 47 48 46 51 54 54 55 59 62 63 63 65
44 35 36 28 26 26 22 26 28 31 32 29 27 22 23 23 22 29 37 34 27 29 33 35 35 36 39 43 43 41 42 47 48 48 54 58 57 59 58 60 64 66 68 70
23 20 23 28 26 28 28 26 28 26 27 27 24 20 23 27 26 29 27 30 33 36 40 42 45 46 49 50 48 46 47 49 52 56 59 61 63 65 65 65 67 70 73 76
Wind_Direction
188 185 173 192 236 212 238 169 34 336 350 323 329 323 332 324 314 318 325 316 306 317 319 317 323 0 235 265 283 286 297 298 296 293 303 317 314 309 305 306 310 314 316 317
175 198 183 148 118 30 289 218 241 317 332 307 309 305 310 302 310 307 304 313 313 311 318 314 315 324 256 280 274 280 284 287 289 292 292 296 300 302 302 305 307 308 308 305
177 146 122 106 32 344 347 293 287 306 318 294 293 299 301 298 304 303 298 303 305 303 309 320 308 325 278 274 272 276 281 283 288 291 292 292 300 301 296 304 304 302 306 303
199 209 31 220 141 327 315 321 317 320 297 301 295 296 303 300 303 312 313 310 310 310 316 309 293 304 274 271 264 273 273 277 281 288 287 292 302 296 299 298 297 303 304 301
249 220 312 349 326 291 293 298 293 289 306 297 277 280 291 291 300 302 302 305 288 308 298 292 298 283 259 261 260 261 266 277 280 284 281 272 281 289 291 290 298 304 303 302
202 185 259 229 279 270 274 269 277 293 305 308 300 304 302 296 293 294 294 311 297 300 305 295 285 252 234 252 259 252 265 274 278 271 271 282 287 290 293 298 303 303 300 298
180 191 217 279 259 259 257 274 289 293 294 290 296 306 301 304 307 305 299 302 308 302 307 292 292 310 235 238 246 257 270 278 273 279 285 298 311 311 310 305 305 305 303 304
197 221 242 260 287 295 297 293 295 296 301 301 307 307 306 308 310 318 312 311 317 313 313 288 294 302 266 182 252 263 291 265 272 280 295 306 303 303 299 298 302 303 305 310
227 243 262 269 280 290 290 294 301 296 297 305 314 310 307 316 314 321 319 312 316 321 316 332 304 296 240 247 253 262 266 279 278 286 298 308 312 311 302 301 311 317 312 310
272 276 269 267 274 279 281 286 290 292 298 302 307 311 314 314 315 320 315 316 317 316 322 320 333 292 251 234 239 250 263 269 273 284 308 310 313 309 307 308 310 309 309 311
271 275 265 273 277 284 275 278 282 291 296 296 306 315 315 317 317 313 314 322 315 319 323 320 306 321 215 219 251 245 255 257 260 301 313 306 307 304 306 303 309 315 314 316
262 271 272 278 296 292 289 282 284 287 295 299 307 311 313 318 313 314 320 323 317 312 316 325 335 147 254 287 272 232 260 259 271 307 294 298 298 299 302 308 308 311 317 324
265 262 267 292 300 292 286 287 289 291 294 302 305 305 310 314 310 318 325 325 322 316 308 311 290 251 255 259 246 257 277 290 266 262 279 282 290 300 316 323 324 320 315 314
281 287 302 314 296 272 282 282 284 287 297 302 296 299 308 308 313 319 325 331 335 318 312 312 285 273 251 240 264 275 273 235 261 259 268 283 304 317 318 318 311 306 307 317
278 287 287 299 308 299 292 284 284 290 295 292 293 302 306 308 308 316 317 326 355 347 320 304 291 262 241 249 243 208 245 262 246 265 279 302 317 316 309 303 303 303 316 325
281 284 283 280 284 286 285 290 290 289 290 290 293 298 300 308 304 310 315 331 338 340 350 342 328 151 206 223 208 208 241 239 258 253 281 298 312 316 303 300 308 317 321 317
265 272 279 288 267 281 281 283 283 290 290 291 294 299 304 306 307 308 306 315 320 322 312 311 305 281 269 253 221 220 237 262 277 276 286 298 310 308 309 298 294 297 301 315
265 269 271 269 292 281 281 285 284 285 287 285 293 303 308 302 305 305 307 301 298 302 307 315 309 301 288 265 242 273 268 277 278 277 288 294 292 286 283 288 292 294 296 303
275 254 267 270 278 283 284 273 271 276 273 284 288 294 299 302 302 297 300 293 288 293 300 307 312 305 290 275 265 265 271 276 274 276 281 284 285 281 288 292 295 296 298 300
264 266 271 278 274 275 279 280 288 275 270 266 280 296 296 298 298 291 296 295 292 288 295 296 291 287 275 272 273 272 272 277 275 278 280 283 284 286 291 294 298 301 305 309
255 251 271 273 272 274 276 284 290 288 312 298 262 288 294 297 299 294 293 284 286 289 287 296 288 279 280 277 276 278 280 282 283 286 288 289 288 287 289 292 295 297 301 305
256 260 271 266 268 274 284 290 299 300 300 300 308 300 291 290 275 275 278 280 284 291 291 296 294 286 284 287 287 285 283 282 285 285 289 295 295 295 293 292 293 298 302 303
263 272 274 271 260 280 285 287 308 300 301 307 307 308 301 305 271 275 283 289 294 297 297 296 299 298 297 295 292 281 276 278 287 289 292 295 295 294 293 292 292 294 299 299
257 264 281 252 277 291 286 293 287 294 300 304 304 305 287 284 281 282 285 288 288 288 285 294 290 286 292 296 297 288 282 284 288 290 293 295 296 296 293 291 293 295 296 298
264 251 259 276 282 276 282 293 293 294 295 301 304 291 281 281 270 272 282 289 274 277 287 293 287 283 286 293 295 291 289 286 287 287 290 293 294 295 297 296 297 299 301 302
248 256 263 262 271 276 284 283 280 285 297 297 305 307 294 292 294 283 272 269 277 289 290 289 290 290 290 290 290 287 288 285 286 290 292 294 296 300 298 298 299 300 300 300